Location: Aragüita
(10.0436°N, 67.8028°W)
Time: 13:11:56
(UTC+00:00)

Delta 7925 Rocket - Pass Details

Date: 14 April 2024
Orbit: 645 x 1644 km, 26.3° (Epoch: 29 May)

Event Time Altitude Azimuth Distance (km) Brightness Sun altitude
Rises 00:31:49 0° 302° (WNW) 3,248 7.9 -27.2°
Reaches altitude 10° 00:34:07 10° 307° (NW) 2,426 6.9 -27.8°
Maximum altitude 00:39:50 56° 25° (NNE) 1,145 4.2 -29.1°
Enters shadow 00:39:52 56° 27° (NNE) 1,147 4.2 -29.1°
